Location: Al Mulaqqa?ah
(24.1833°N, 32.8833°E)
Time: 22:19:21
(UTC+00:00)

NOSS 3-2 (C) - Pass Details

Date: 26 September 2021
Orbit: 773 x 1439 km, 63.4° (Epoch: 17 October)

Event Time Altitude Azimuth Distance (km) Brightness Sun altitude
Rises 16:22:25 0° 177° (S) 3,232 6.2 -10.4°
Reaches altitude 10° 16:25:08 10° 164° (SSE) 2,312 5.3 -11.0°
Maximum altitude 16:29:23 25° 109° (ESE) 1,544 4.0 -12.0°
Drops below altitude 10° 16:33:52 10° 55° (NE) 2,454 5.2 -13.0°
Enters shadow 16:34:05 - 54° (NE) 2,527 5.2 -13.0°
